Location: Unspecified
(0.0000°N, 0.0000°E)
Time: 06:26:12
(UTC+00:00)

Transit 2A - Pass Details

Date: 02 June 2019
Orbit: 598 x 960 km, 66.7° (Epoch: 15 September)

Event Time Altitude Azimuth Distance (km) Brightness Sun altitude
Rises 04:41:51 0° 233° (SW) 3,365 - -17.6°
Reaches altitude 10° 04:45:03 10° 252° (WSW) 2,496 - -16.8°
Exits shadow 04:48:04 17° 283° (WNW) 2,079 7.8 -16.1°
Maximum altitude 04:48:48 18° 292° (WNW) 2,070 7.8 -16.0°
Drops below altitude 10° 04:52:43 10° 332° (NNW) 2,616 8.7 -15.1°
Sets 04:56:13 0° 351° (N) 3,595 9.6 -14.3°
